Regional Weather Roundup
Issued by NWS

Home | Current Version | Previous Version | Text Only | Print | Product List | Glossary On
Versions: 1 2 3 4 5 6 7 8 9 10 11 12 13 14 15 16 17 18 19 20 21 22 23 24 25 26 27 28 29 30 31 32 33 34 35 36 37 38 39 40 41 42 43 44 45 46 47 48 49 50
000
ASUS45 KREV 230910
RWRNV
NEVADA REGIONAL WEATHER ROUNDUP
NATIONAL WEATHER SERVICE RENO NV
100 AM PST SUN NOV 23 2014

NOTE: "FAIR" INDICATES FEW OR NO CLOUDS BELOW 12,000 FEET WITH NO
SIGNIFICANT WEATHER AND/OR OBSTRUCTIONS TO VISIBILITY.

NVZ001-003-004-231000-
WESTERN NEVADA

CITY           SKY/WX    TMP DP  RH WIND       PRES   REMARKS
RENO           MOCLDY    38  28  67 N8        30.29R
CARSON CITY    FAIR      32  23  69 NW5       30.29R
MINDEN         FAIR      23  18  80 E5        30.30
SLIDE MTN        N/A     19  14  79 N13         N/A
PYRAMID LAKE     N/A     37 N/A N/A W8          N/A
FALLON         PTCLDY    29  21  72 CALM      30.27R
LOVELOCK       CLEAR     31  19  61 VRB3      30.27R
HAWTHORNE      CLEAR     43  30  61 NW8       30.27R
$$

NVZ002-CAZ072-073-231000-
NORTHERN AND CENTRAL SIERRA

CITY           SKY/WX    TMP DP  RH WIND       PRES   REMARKS
S. LAKE TAHOE  CLEAR     29  23  78 CALM      30.25S
TRUCKEE        CLEAR     23  23 100 CALM      30.28S
SQUAW VLY 8000 NOT AVBL
SUSANVILLE     CLEAR     32  28  86 CALM      30.30R
BLUE CANYON    CLEAR     35  25  66 NE6       30.26F
MAMMOTH LAKES  FAIR      27  19  74 CALM      30.25R
BRIDGEPORT     FAIR      24  18  77 CALM      30.24R
$$

NVZ030-031-036-231000-
NORTHERN NEVADA

CITY           SKY/WX    TMP DP  RH WIND       PRES   REMARKS
ELKO           CLEAR     30  24  78 SE7       30.15R
WINNEMUCCA     CLEAR     30  24  78 VRB5      30.23R
WENDOVER       CLEAR     37  19  48 NW13G25   30.08R
$$

NVZ035-037-231000-
CENTRAL NEVADA

CITY           SKY/WX    TMP DP  RH WIND       PRES   REMARKS
ELY            PTCLDY    30  30 100 N13G25    30.12R
EUREKA           N/A     29  23  78 CALM      30.17R
$$

NVZ013-014-231000-
SOUTH CENTRAL NEVADA

CITY           SKY/WX    TMP DP  RH WIND       PRES   REMARKS
TONOPAH        PTCLDY    37  20  50 NW21G28   30.18R
$$

NVZ017-020-022-231000-
SOUTHERN NEVADA

CITY           SKY/WX    TMP DP  RH WIND       PRES   REMARKS
LAS VEGAS      PTCLDY    62  23  22 NW16G31   29.95R
N. LAS VEGAS   CLEAR     61  20  20 N16G29    29.99R
NELLIS AFB     CLEAR     60  29  30 N9        30.01R
HENDERSON      CLEAR     60  23  24 N22G29    30.01R
MERCURY        PTCLDY    52  20  28 N20       30.08R
$$


USA.gov is the U.S. government's official web portal to all federal, state and local government web resources and services.